Regional Weather Roundup
Issued by NWS

Home | Current Version | Previous Version | Text Only | Print | Product List | Glossary Off
Versions: 1 2 3 4 5 6 7 8 9 10 11 12 13 14 15 16 17 18 19 20 21 22 23 24 25 26 27 28 29 30 31 32 33 34 35 36 37 38 39 40 41 42 43 44 45 46 47 48 49 50

000
ASUS43 KLSX 270707
RWRMO

WEATHER SUMMARY FOR MISSOURI
NATIONAL WEATHER SERVICE SPRINGFIELD MO
200 AM CDT FRI MAY 27 2016

NOTE: "FAIR" INDICATES FEW OR NO CLOUDS BELOW 12,000 FEET WITH NO
       SIGNIFICANT WEATHER AND/OR OBSTRUCTIONS TO VISIBILITY.
       CURRENT SKY AND/OR WEATHER CONDITIONS ARE NOT AVAILABLE FOR
       CHILLICOTHE AND FARMINGTON.

MOZ001>031-035>038-043-044-053-054-270800-
...NORTHERN AND WESTERN MISSOURI...

CITY           SKY/WX    TMP DP  RH WIND       PRES   REMARKS
KANSAS CTY INT CLOUDY    63  60  90 E17G28    29.81F
KANSAS C DTWN  CLOUDY    64  62  93 E8        29.82F
LEE`S SUMMIT   CLOUDY    63  61  93 E10       29.83F
ST JOSEPH      CLOUDY    63  60  90 SE12G20   29.78S
CHILLICOTHE      N/A     63  63 100 CALM      29.87S
KIRKSVILLE     MOCLDY    63  61  93 CALM      29.87R

$$
MOZ066>068-077>081-088>096-101>105-270800-
...SOUTHWEST MISSOURI...

CITY           SKY/WX    TMP DP  RH WIND       PRES   REMARKS
SPRINGFIELD    CLOUDY    70  65  84 SE10      29.85F
JOPLIN         CLOUDY    67  61  81 SE6       29.82F

$$
MOZ032>034-039>042-045>050-055>058-069>072-270800-
...CENTRAL MISSOURI...

CITY           SKY/WX    TMP DP  RH WIND       PRES   REMARKS
COLUMBIA       CLOUDY    65  64  97 E7        29.88F
JEFFERSON CITY CLOUDY    65  64  97 E7        29.88F
ROLLA          CLOUDY    66  64  93 SE9       29.89F
SEDALIA        CLOUDY    65  63  93 MISG      29.85F
WHITEMAN AFB   CLOUDY    62  62 100 E5        29.82F
WARRENSBURG    CLOUDY    61  61 100 CALM      29.83F

$$
MOZ051-052-059>065-270800-
...EAST CENTRAL MISSOURI...

CITY           SKY/WX    TMP DP  RH WIND       PRES   REMARKS
ST LOUIS INTL  LGT RAIN  70  66  87 SW10      29.93S
SPIRIT OF STL  LGT RAIN  69  67  93 S3        29.91F
ST CHARLES     MOCLDY    69  69 100 S6        29.91R

$$
MOZ072>076-082>087-097>100-106>115-270800-
...SOUTH CENTRAL AND SOUTHEAST MISSOURI...

CITY           SKY/WX    TMP DP  RH WIND       PRES   REMARKS
CAPE GIRARDEAU LGT RAIN  67  64  90 CALM      29.93F
FARMINGTON     CLOUDY    66  64  93 S6        29.95F
POPLAR BLUFF   LGT RAIN  67  65  93 SE6       29.92F
WEST PLAINS    CLOUDY    67  64  90 SE14G20   29.90F

$$



USA.gov is the U.S. government's official web portal to all federal, state and local government web resources and services.